Wind_Speed
16 15 14 13 12 11 11 10 10 9 9 9 9 8 8 7 7 7 7 7 7 7 7 7 7 8 7 8 8 8 8 9 9 9 9 9 9 9 9 9 9 9 9
18 17 16 15 14 13 13 12 11 11 11 11 10 10 10 9 9 8 8 8 8 8 8 8 9 9 9 10 10 10 10 10 11 10 10 10 10 11 11 11 11 11 11
20 19 18 17 16 15 14 14 13 12 12 12 12 11 11 11 10 10 10 10 10 10 10 10 10 11 11 11 11 12 12 12 12 12 12 12 12 12 12 13 13 13 13
21 20 19 19 18 17 16 15 15 14 14 13 13 13 13 13 12 12 12 12 12 12 12 12 12 13 13 13 13 13 14 13 13 13 13 13 13 13 13 14 13 14 14
22 22 21 20 19 18 17 17 16 16 15 15 15 15 15 15 14 14 14 14 14 14 15 15 15 15 15 15 15 15 15 15 14 14 14 14 14 14 15 15 15 15 15
24 23 22 21 21 20 19 19 18 18 17 16 16 17 17 16 16 16 16 16 16 16 17 17 17 17 17 17 17 16 16 16 16 16 16 16 16 16 16 17 17 17 17
26 25 24 23 22 22 21 20 20 19 19 18 18 18 18 18 18 18 18 18 18 18 18 18 18 18 18 18 18 17 17 17 17 17 18 18 18 18 18 19 19 19 19
27 27 26 25 24 23 22 21 21 20 20 20 19 19 19 19 19 19 20 20 20 20 20 20 20 19 19 19 19 19 19 19 19 19 20 20 20 20 20 20 21 21 21
29 28 27 26 26 25 24 22 22 21 21 21 20 20 20 20 21 21 21 21 21 21 21 21 21 20 20 20 20 21 21 21 22 22 22 22 22 23 23 22 22 22 22
30 29 28 27 26 25 25 24 23 22 22 21 21 20 20 20 20 21 22 22 22 22 22 21 21 21 21 21 21 22 22 23 23 24 24 24 24 25 25 25 25 25 24
30 30 29 29 28 27 26 26 25 24 24 23 22 22 21 21 21 22 22 22 23 23 23 23 22 22 22 23 23 23 24 24 25 25 26 26 26 27 27 27 27 27 27
31 31 31 30 29 28 28 28 27 26 25 25 24 24 23 23 24 24 24 24 24 24 24 24 24 24 24 24 25 25 26 26 26 27 27 28 28 28 28 29 29 29 29
32 31 31 31 30 30 29 29 29 28 27 26 25 25 25 25 25 25 25 26 25 25 25 25 25 26 26 26 26 27 27 28 28 28 29 29 29 30 30 30 30 31 30
34 32 32 32 32 31 30 30 30 29 28 28 27 27 27 27 27 26 27 27 26 26 26 25 26 27 27 27 27 28 28 29 29 29 30 30 30 30 31 32 32 32 32
35 34 33 33 33 33 32 31 31 31 30 30 30 29 28 28 28 28 28 28 27 27 26 26 26 27 27 28 28 29 30 30 31 31 32 32 32 32 33 33 34 34 34
35 35 33 33 34 34 34 33 32 32 31 31 31 31 30 29 30 30 29 28 28 27 27 27 27 27 28 28 29 29 30 31 32 33 33 34 34 34 35 35 36 36 37
35 35 34 34 34 34 34 34 33 32 32 32 32 33 33 32 31 30 30 29 28 28 28 28 28 29 29 29 30 31 32 32 33 34 35 35 36 36 36 37 38 38 38
34 34 34 34 35 35 35 35 34 33 34 34 34 34 34 33 32 31 30 30 30 30 30 30 30 31 31 31 32 32 33 33 34 35 36 37 37 37 38 38 38 39 40
34 34 34 34 34 35 35 35 35 34 35 35 35 34 33 34 33 33 32 32 32 32 32 32 33 33 32 32 32 33 33 34 35 36 36 37 38 38 39 39 39 40 40
34 34 34 34 35 35 35 36 36 36 35 35 34 34 33 33 33 32 33 32 32 33 33 34 34 34 34 34 34 34 34 35 36 37 37 38 39 39 40 40 40 40 41
33 34 34 34 34 34 35 36 35 35 34 34 33 34 34 33 33 33 33 33 33 34 34 35 35 35 35 35 35 35 36 37 37 38 38 38 39 40 40 40 40 40 41
31 32 34 33 33 34 35 36 36 35 34 34 35 34 35 35 35 34 34 34 34 35 35 36 36 36 36 37 37 37 38 38 38 39 39 39 40 41 41 41 41 41 41
30 31 32 32 32 33 34 36 36 36 36 35 35 35 36 36 36 36 35 36 36 36 37 37 37 37 37 38 39 39 39 39 39 39 39 40 40 41 41 41 42 42 43
30 31 32 32 33 34 35 36 37 37 38 37 37 37 37 38 38 38 37 37 37 37 38 38 39 39 39 40 40 41 41 41 40 40 40 40 40 41 41 41 41 42 43
30 31 32 32 32 33 34 35 36 37 38 38 39 39 39 38 39 39 38 38 38 38 39 39 40 40 41 42 42 42 41 41 41 41 40 40 40 41 41 42 42 42 42
29 30 31 32 32 33 34 35 36 37 38 38 39 39 39 39 39 39 39 39 39 40 40 41 42 42 43 43 43 42 42 42 42 42 42 42 42 42 42 42 42 42 43
Wind_Direction
231 231 229 228 229 229 230 230 230 233 234 235 238 240 241 243 246 250 253 256 260 264 268 271 272 273 274 274 274 275 277 277 278 279 279 278 279 280 282 282 284 287 289
233 231 231 230 230 232 234 234 235 237 240 241 243 245 247 249 249 251 253 257 261 264 266 269 271 273 274 275 275 274 275 276 276 276 276 275 275 277 279 281 283 284 285
233 232 233 233 234 236 238 239 239 242 246 247 247 249 251 252 253 254 256 259 260 263 266 269 271 274 275 274 274 274 274 275 275 274 275 274 274 276 278 280 282 283 283
233 233 234 236 237 238 240 242 242 244 248 250 249 250 253 255 256 257 259 261 263 264 266 269 271 273 274 274 274 275 274 274 273 274 274 274 274 276 278 280 281 282 282
233 234 235 237 238 240 242 244 244 246 248 251 251 252 253 256 257 258 260 263 265 267 268 269 270 272 273 273 273 274 274 273 273 273 273 273 274 275 276 278 279 280 281
233 234 236 238 240 242 245 246 246 248 250 252 254 255 255 257 259 260 262 264 265 267 268 269 270 272 272 272 272 272 272 272 271 271 272 273 274 274 275 276 277 278 278
234 235 238 239 241 243 246 247 247 249 251 253 255 256 256 257 259 261 263 265 266 267 268 270 270 271 271 270 269 269 269 270 271 271 272 272 273 274 275 275 275 276 277
234 236 238 239 241 243 245 247 248 250 252 253 255 257 258 258 260 262 264 265 266 267 268 270 271 270 270 269 268 268 268 268 269 270 271 273 273 274 275 276 276 275 276
234 236 238 239 241 242 244 246 248 249 252 254 255 257 258 260 262 263 264 265 267 268 269 269 269 269 268 268 268 268 269 269 270 271 272 272 273 274 274 275 275 276 275
234 234 235 237 240 243 244 245 248 250 252 254 255 256 259 260 263 266 266 267 268 269 269 269 269 268 267 268 269 270 270 271 272 272 272 272 273 274 274 273 273 273 274
234 234 236 237 240 243 245 246 247 250 252 254 256 257 259 260 264 266 268 269 268 267 267 268 268 268 268 269 270 270 271 272 273 273 273 273 274 274 273 273 273 273 273
233 234 236 237 240 243 245 246 247 249 252 254 256 258 261 262 265 266 267 269 270 269 268 267 268 269 269 270 270 271 271 272 272 273 274 275 275 275 274 273 273 274 274
233 234 235 238 241 244 246 247 248 250 252 255 256 260 263 264 265 267 268 270 271 270 269 268 268 269 270 271 272 272 272 272 273 274 274 275 275 275 274 274 274 274 274
234 235 235 237 240 243 246 248 250 251 252 255 257 260 263 265 266 266 268 269 270 270 269 268 268 269 270 271 271 272 273 273 274 274 274 275 275 275 274 274 274 274 274
235 236 237 239 241 244 246 249 252 252 253 256 258 260 262 264 265 267 268 268 268 268 268 268 269 270 270 270 272 273 274 273 273 274 274 274 274 274 274 274 273 273 274
235 238 239 241 243 244 246 249 251 253 254 256 259 260 262 263 265 266 266 266 267 267 268 269 270 271 272 272 273 274 274 274 275 275 275 274 274 274 274 274 273 273 273
236 237 240 241 242 244 246 248 250 253 254 256 258 259 260 261 262 264 264 264 265 266 267 268 270 272 273 274 274 275 275 275 276 276 276 275 274 274 274 274 273 273 273
238 238 239 241 242 245 247 250 251 254 256 257 258 259 260 260 260 263 264 264 265 265 267 269 271 272 273 274 274 275 275 276 277 277 277 276 276 275 275 275 275 274 274
238 239 239 239 242 245 247 251 253 255 257 258 258 259 259 259 260 261 264 265 265 266 268 270 271 273 273 274 275 276 276 277 278 279 279 278 277 276 275 275 274 274 274
238 239 241 242 245 247 248 251 253 254 257 258 258 258 259 259 259 261 263 266 266 267 269 270 271 273 274 274 275 276 277 278 279 279 278 278 277 277 276 275 274 274 274
238 240 243 245 247 247 249 250 252 254 255 257 258 259 259 260 261 262 263 265 266 267 269 270 271 272 273 274 275 276 277 278 279 279 278 278 277 277 276 274 274 274 274
241 241 242 245 248 250 250 251 253 256 258 259 259 260 261 262 264 265 265 264 267 268 269 270 271 272 273 274 275 276 277 278 279 279 279 278 278 277 276 275 274 274 274
242 244 246 249 251 253 253 253 255 258 260 261 261 261 262 264 265 266 265 265 268 269 270 271 272 272 273 274 276 277 278 278 279 279 279 278 278 278 277 276 275 275 275
246 248 250 252 254 256 256 256 257 259 260 261 262 262 262 264 265 266 266 267 268 270 270 271 272 273 274 275 277 278 279 279 280 280 279 278 278 278 277 277 277 277 276
249 250 252 254 256 257 256 257 258 259 260 261 261 262 263 264 265 265 266 268 269 269 270 271 272 274 274 276 277 278 278 279 280 281 280 279 278 278 277 277 277 278 277
251 252 253 255 257 258 258 259 260 262 262 263 263 262 263 265 266 267 268 269 269 271 272 272 273 274 274 276 276 277 278 278 279 279 279 279 278 278 278 277 277 278 278
Height
5864 5865 5866 5867 5867 5868 5869 5869 5870 5870 5871 5871 5871 5872 5872 5872 5872 5872 5872 5872 5872 5872 5872 5872 5872 5872 5872 5872 5871 5871 5871 5871 5870 5870 5870 5869 5869 5869 5868 5868 5868 5867 5867
5861 5862 5863 5864 5865 5866 5867 5867 5868 5868 5869 5869 5869 5870 5870 5870 5870 5870 5871 5871 5871 5870 5870 5870 5870 5870 5870 5870 5870 5869 5869 5869 5868 5868 5868 5867 5867 5867 5866 5866 5866 5865 5865
5858 5859 5860 5861 5862 5863 5864 5865 5865 5866 5867 5867 5867 5868 5868 5868 5868 5868 5868 5868 5868 5868 5868 5868 5868 5868 5868 5868 5867 5867 5867 5866 5866 5866 5865 5865 5865 5865 5864 5864 5863 5863 5862
5854 5855 5857 5858 5859 5860 5861 5862 5863 5863 5864 5865 5865 5865 5865 5866 5866 5866 5866 5866 5866 5866 5866 5866 5866 5865 5865 5865 5865 5864 5864 5864 5863 5863 5863 5862 5862 5862 5862 5861 5861 5860 5860
5850 5852 5853 5855 5856 5857 5858 5859 5860 5861 5861 5862 5862 5862 5862 5863 5863 5863 5863 5863 5863 5863 5863 5863 5863 5862 5862 5862 5862 5861 5861 5861 5860 5860 5860 5860 5859 5859 5859 5858 5858 5857 5857
5846 5847 5849 5851 5852 5853 5854 5856 5856 5857 5858 5858 5859 5859 5859 5859 5860 5860 5860 5860 5860 5860 5860 5860 5859 5859 5859 5859 5858 5858 5858 5858 5857 5857 5857 5856 5856 5856 5856 5855 5855 5854 5854
5841 5843 5845 5846 5848 5849 5850 5851 5852 5853 5854 5854 5855 5855 5856 5856 5856 5856 5856 5856 5856 5856 5856 5856 5855 5855 5855 5855 5854 5854 5854 5854 5854 5853 5853 5853 5853 5852 5852 5851 5851 5851 5850
5836 5838 5840 5842 5843 5845 5846 5847 5848 5849 5850 5850 5851 5851 5851 5852 5852 5852 5852 5852 5852 5852 5852 5851 5851 5851 5851 5850 5850 5850 5850 5850 5850 5849 5849 5849 5849 5848 5848 5847 5847 5846 5846
5830 5833 5835 5837 5838 5840 5841 5843 5844 5845 5845 5846 5846 5847 5847 5848 5848 5847 5847 5848 5848 5848 5847 5847 5847 5846 5846 5846 5846 5846 5846 5845 5845 5845 5845 5844 5844 5844 5843 5843 5842 5842 5841
5824 5827 5829 5831 5833 5834 5836 5838 5839 5840 5841 5841 5842 5842 5843 5843 5843 5843 5843 5843 5843 5843 5843 5842 5842 5842 5842 5841 5841 5841 5841 5840 5840 5840 5839 5839 5839 5839 5838 5838 5837 5837 5836
5818 5821 5823 5826 5827 5829 5831 5832 5834 5835 5836 5836 5837 5838 5838 5838 5838 5838 5838 5838 5838 5838 5837 5837 5837 5837 5837 5836 5836 5836 5835 5835 5835 5834 5834 5834 5833 5833 5833 5832 5832 5831 5831
5812 5815 5817 5820 5822 5824 5825 5827 5828 5830 5831 5832 5832 5833 5833 5833 5833 5833 5833 5833 5833 5832 5832 5832 5832 5832 5831 5831 5830 5830 5830 5829 5829 5829 5828 5828 5827 5827 5826 5826 5826 5825 5825
5805 5808 5811 5814 5816 5817 5819 5821 5822 5824 5825 5826 5827 5827 5828 5828 5828 5828 5828 5828 5827 5827 5827 5826 5826 5826 5825 5825 5824 5824 5824 5823 5823 5823 5822 5822 5821 5820 5820 5819 5819 5818 5818
5799 5802 5804 5807 5809 5811 5813 5815 5816 5817 5819 5820 5821 5822 5822 5822 5822 5822 5822 5822 5821 5821 5821 5820 5820 5820 5819 5819 5818 5818 5817 5817 5816 5816 5815 5815 5814 5814 5813 5812 5812 5811 5811
5792 5795 5797 5800 5802 5805 5806 5808 5810 5811 5813 5814 5815 5815 5815 5816 5816 5816 5816 5815 5815 5815 5815 5815 5814 5813 5813 5812 5812 5811 5811 5810 5809 5809 5808 5808 5807 5806 5806 5805 5804 5804 5803
5785 5788 5791 5793 5795 5798 5800 5802 5803 5805 5806 5807 5808 5809 5809 5809 5809 5809 5809 5809 5809 5809 5808 5808 5808 5807 5806 5806 5805 5804 5803 5803 5802 5801 5801 5800 5799 5798 5798 5797 5796 5796 5795
5777 5780 5783 5786 5788 5791 5793 5795 5796 5797 5799 5800 5800 5801 5802 5802 5802 5802 5802 5802 5802 5802 5802 5802 5801 5800 5800 5799 5798 5797 5796 5795 5794 5793 5792 5791 5790 5790 5789 5788 5788 5787 5786
5770 5773 5776 5778 5781 5784 5786 5787 5789 5790 5791 5792 5793 5793 5794 5794 5795 5795 5795 5795 5795 5795 5795 5795 5794 5793 5792 5791 5790 5789 5788 5787 5786 5785 5783 5782 5781 5781 5780 5779 5778 5778 5777
5763 5766 5768 5771 5774 5776 5779 5780 5782 5783 5784 5784 5785 5785 5785 5786 5786 5787 5787 5787 5787 5787 5787 5787 5786 5786 5785 5784 5783 5781 5780 5779 5778 5776 5774 5773 5772 5771 5770 5769 5769 5768 5767
5756 5759 5762 5764 5767 5769 5771 5773 5774 5775 5776 5777 5777 5778 5778 5778 5779 5779 5779 5779 5779 5780 5779 5779 5778 5778 5777 5776 5775 5773 5772 5771 5769 5767 5765 5764 5763 5761 5760 5760 5759 5758 5757
5750 5752 5755 5758 5760 5762 5763 5765 5766 5768 5769 5769 5770 5770 5771 5771 5771 5771 5771 5771 5771 5771 5771 5771 5770 5769 5768 5767 5766 5765 5763 5762 5760 5758 5756 5754 5753 5752 5750 5750 5749 5748 5747
5744 5746 5749 5751 5753 5754 5756 5757 5759 5760 5760 5761 5762 5762 5763 5763 5763 5763 5763 5763 5763 5763 5762 5762 5761 5760 5759 5758 5757 5756 5755 5753 5751 5748 5746 5745 5743 5742 5740 5739 5739 5738 5737
5738 5740 5742 5744 5746 5747 5748 5749 5750 5752 5752 5753 5753 5754 5755 5755 5754 5754 5754 5754 5754 5754 5753 5753 5752 5751 5750 5749 5748 5746 5745 5743 5741 5740 5737 5735 5733 5732 5730 5729 5728 5727 5726
5732 5734 5736 5737 5738 5739 5740 5741 5742 5743 5744 5744 5745 5745 5745 5746 5745 5746 5746 5745 5745 5745 5744 5743 5743 5742 5741 5740 5738 5736 5734 5733 5731 5730 5728 5726 5724 5722 5720 5719 5718 5717 5716
5725 5727 5728 5729 5731 5732 5732 5733 5734 5734 5735 5735 5735 5736 5736 5736 5736 5736 5736 5736 5736 5735 5734 5733 5733 5731 5730 5729 5728 5726 5724 5722 5720 5718 5718 5716 5714 5712 5710 5709 5708 5706 5705
5719 5720 5721 5722 5723 5724 5724 5724 5725 5725 5726 5726 5726 5726 5726 5726 5727 5727 5727 5726 5726 5725 5724 5723 5722 5721 5720 5718 5717 5715 5713 5712 5710 5708 5707 5705 5704 5702 5700 5698 5697 5695 5694